Location: ??????
(55.7522°N, 37.6156°E)
Time: 17:08:58
(UTC+00:00)

SJ 16-02 - Pass Details

Date: 14 June 2025
Orbit: 588 x 596 km, 75.0° (Epoch: 13 July)

Event Time Altitude Azimuth Distance (km) Brightness Sun altitude
Exits shadow 22:39:00 11° 219° (SW) 1,880 3.3 -9.6°
Maximum altitude 22:43:08 61° 300° (WNW) 683 1.6 -9.4°
Drops below altitude 10° 22:47:26 10° 21° (NNE) 1,946 5.6 -9.2°
Sets 22:49:42 0° 25° (NNE) 2,852 7.0 -9.1°
